SCP
0 0 0 0 0 0 0 0 0 0 0 0 0 0 0 0 0 0 0 0 0 0 0 0 0 0 0 0 0 0 0 0 0 0 0 0 0 0 0 0 0 0 0 0
0 0 0 0 0 0 0 0 0 0 0 0 0 0 0 0 0 0 0 0 0 0 0 0 0 0 0 0 0 0 0 0 0 0 0 0 0 0 0 0 0 0 0 0
0 0 0 0 0 0 0 0 0 0 0 0 0 0 0 0 0 0 0 0 0 0 0 0 0 0 0 0 0 0 0 0 0 0 0 0 0 0 0 0 0 0 0 0
0 0 0 0 0 0 0 0 0 0 0 0 0 0 0 0 0 0 0 0 0 0 0 0 0 0 0 0 0 0 0 0 0 0 0 0 0 0 0 0 0 0 0 0
0 0 0 0 0 0 0 0 0 0 0 0 0 0 0 0 0 0 0 0 0 0 0 0 0 0 0 0 0 0 0 0 0 0 0 0 0 0 0 0 0 0 0 0
0 0 0 0 0 0 0 0 0 0 0 0 0 0 0 0 0 0 0 0 0 0 0 0 0 0 0 0 0 0 0 0 0 0 0 0 0 0 0 0 0 0 0 0
0 0 0 0 0 0 0 0 0 0 0 0 0 0 0 0 0 0 0 0 0 0 0 0 0 0 0 0 0 0 0 0 0 0 0 0 0 0 0 0 0 0 0 0
0 0 0 0 0 0 0 0 0 0 0 0 0 0 0 0 0 0 0 0 0 0 0 0 0 0 0 0 0 0 0 0 0 0 0 0 0 0 0 0 0 0 0 0
0 0 0 0 0 0 0 0 0 0 0 0 0 0 0 0 0 0 0 0 0 0 0 0 0 0 0 0 0 0 0 0 0 0 0 0 0 0 0 0 0 0 0 0
0 0 0 0 0 0 0 0 0 0 0 0 0 0 0 0 0 0 0 0 0 0 0 0 0 0 0 0 0 0 0 0 0 0 0 0 0 0 0 0 0 0 0 0
0 0 0 0 0 0 0 0 0 0 0 0 0 0 0 0 0 0 0 0 0 0 0 0 0 0 0 0 0 0 0 0 0 0 0 0 0 0 0 0 0 0 0 0
0 0 0 0 0 0 0 0 0 0 0 0 0 0 0 0 0 0 0 0 0 0 0 0 0 0 0 0 0 0 0 0 0 0 0 0 0 0 0 0 0 0 0 0
0 0 0 0 0 0 0 0 0 0 0 0 0 0 0 0 0 0 0 0 0 0 0 0 0 0 0 0 0 0 0 0 0 0 0 0 0 0 0 0 0 0 0 0
0 0 0 0 0 0 0 0 0 0 0 0 0 0 0 0 0 0 0 0 0 0 0 0 0 0 0 0 0 0 0 0 0 0 0 0 0 0 0 0 0 0 0 0
0 0 0 0 0 0 0 0 0 0 0 0 0 0 0 0 0 0 0 0 0 0 0 0 0 0 0 0 0 0 0 0 0 0 0 0 0 0 0 0 0 0 0 0
0 0 0 0 0 0 0 0 0 0 0 0 0 0 0 0 0 0 0 0 0 0 0 0 0 0 0 0 0 0 0 0 0 0 0 0 0 0 0 0 0 0 0 0
0 0 0 0 0 0 0 0 0 0 0 0 0 0 0 0 0 0 0 0 0 0 0 0 0 0 0 0 0 0 0 0 0 0 0 0 0 0 0 0 0 0 0 0
0 0 0 0 0 0 0 0 0 0 0 0 0 0 0 0 0 0 0 0 0 0 0 0 0 0 0 0 0 0 0 0 0 0 0 0 0 0 0 0 0 0 0 0
0 0 0 0 0 0 0 0 0 0 0 0 0 0 0 0 0 0 0 0 0 0 0 0 0 0 0 0 0 0 0 0 0 0 0 0 0 0 0 0 0 0 0 0
0 0 0 0 0 0 0 0 0 0 0 0 0 0 0 0 0 0 0 0 0 0 0 0 0 0 0 0 0 0 0 0 0 0 0 0 0 0 0 0 0 0 0 0
0 0 0 0 0 0 0 0 0 0 0 0 0 0 0 0 0 0 0 0 0 0 0 0 0 0 0 0 0 0 0 0 0 0 0 0 0 0 0 0 0 0 0 0
0 0 0 0 0 0 0 0 0 0 0 0 0 0 0 0 0 0 0 0 0 0 0 0 0 0 0 0 0 0 0 0 0 0 0 0 0 0 0 0 0 0 0 0
0 0 0 0 0 0 0 0 0 0 0 0 0 0 0 0 0 0 0 0 0 0 0 0 0 0 0 0 0 0 0 0 0 0 0 0 0 0 0 0 0 0 0 0
0 0 0 0 0 0 0 0 0 0 0 0 0 0 0 0 0 0 0 0 0 0 0 0 0 0 0 0 0 0 0 0 0 0 0 0 0 0 0 0 0 0 0 0
-0 0 0 0 0 0 0 0 0 0 0 0 0 0 0 0 0 0 0 0 0 0 0 0 0 0 0 0 0 0 0 0 0 0 0 0 0 0 0 0 0 0 0 0
-0 -0 0 0 0 0 0 0 0 0 0 0 0 0 0 0 0 0 0 0 0 0 0 0 0 0 0 0 0 0 0 0 0 0 0 0 0 0 0 0 0 0 0 0
-0 -0 -0 0 0 0 0 0 0 0 0 0 0 0 0 0 0 0 0 0 0 0 0 0 0 0 0 0 0 0 0 0 0 0 0 0 0 0 0 0 0 0 0 0
Wind_Speed
7 5 4 7 8 8 10 9 10 11 11 15 7 11 11 10 9 8 7 7 6 4 3 3 4 5 5 5 6 6 6 7 8 8 9 9 10 10 10 11 12 13 14 15
6 2 3 7 10 9 10 7 10 10 18 9 2 4 8 11 12 11 9 8 7 5 4 4 4 5 5 5 5 5 6 7 8 8 9 9 10 10 10 10 11 12 13 14
6 5 6 10 8 10 8 10 10 11 12 2 3 8 13 14 14 12 9 8 8 6 5 5 4 4 4 5 5 5 6 6 7 8 9 9 10 10 10 10 10 11 11 12
3 7 6 7 1 7 7 9 11 11 9 7 7 4 5 8 13 11 10 9 8 6 5 4 3 3 4 4 4 5 6 6 7 7 8 9 9 9 9 8 8 8 9 11
2 3 12 10 3 5 5 11 9 12 11 3 4 3 3 7 10 10 10 8 7 6 5 4 3 3 3 4 4 5 6 6 7 7 7 8 8 8 7 7 7 7 8 10
4 2 9 8 3 4 2 9 8 9 7 8 9 3 8 11 11 9 8 7 7 6 5 4 4 3 2 4 4 5 6 6 7 6 6 7 7 7 6 7 7 9 10 9
5 6 14 7 5 5 3 10 4 8 10 14 14 9 3 12 11 10 9 8 7 7 6 5 4 3 3 4 5 5 6 6 6 6 7 7 6 6 7 8 9 8 9 9
6 6 15 7 10 12 14 4 5 7 9 13 10 4 7 12 13 13 10 8 8 7 6 5 4 3 4 5 5 5 5 6 6 7 6 7 6 7 7 7 8 8 7 8
14 14 7 12 14 11 5 6 7 8 9 11 9 9 10 10 11 12 11 10 8 7 6 5 5 5 5 5 4 5 5 6 6 7 6 6 6 7 7 6 6 8 6 7
8 16 11 12 13 10 9 9 7 8 9 14 11 13 13 12 12 11 11 10 8 8 7 6 6 5 6 5 4 5 6 6 6 6 7 6 6 5 6 6 7 7 6 7
10 12 10 11 15 16 12 9 7 8 10 15 14 13 14 14 14 12 12 10 9 9 8 7 6 6 5 4 4 4 5 5 6 6 6 6 7 5 7 6 9 10 7 7
14 12 9 10 6 7 10 13 13 11 9 9 13 16 15 14 13 12 12 11 10 9 9 7 6 6 5 4 4 4 5 5 4 5 5 6 6 7 11 12 16 16 16 15
14 7 9 9 4 6 9 11 12 15 14 13 11 13 16 12 13 12 12 12 12 11 9 7 6 6 5 5 4 4 5 5 4 5 5 6 6 7 9 11 14 15 18 20
12 5 8 9 9 8 8 7 9 9 9 10 12 12 14 10 11 14 14 13 11 9 8 7 7 7 6 5 5 5 4 6 5 4 4 4 5 6 6 8 9 8 12 19
15 15 15 7 3 4 6 7 8 10 10 10 10 12 15 15 16 15 12 10 10 9 8 8 8 8 6 5 5 5 4 3 4 3 3 3 4 5 5 7 7 8 8 11
9 11 11 11 11 9 9 11 13 15 15 14 13 14 15 14 12 11 11 13 12 13 11 10 10 7 6 6 5 4 3 6 5 2 3 3 4 4 5 6 6 7 8 9
9 11 11 13 16 15 16 16 17 16 16 17 17 15 13 11 11 12 13 13 11 10 10 10 9 7 7 6 5 3 3 4 5 3 2 3 3 3 4 5 5 6 7 10
18 20 17 15 13 15 17 17 15 15 16 16 14 15 16 18 18 16 13 11 9 7 8 9 8 7 7 6 5 4 3 3 2 2 3 3 3 3 3 4 5 6 6 8
20 22 19 16 14 13 15 16 18 16 14 15 18 19 18 17 14 13 13 13 13 13 11 10 14 10 8 9 8 4 4 3 3 2 2 4 3 3 3 4 5 5 6 7
20 19 18 15 13 13 14 12 14 14 15 17 17 16 16 14 13 14 15 14 14 9 8 11 12 9 9 9 10 4 5 4 3 3 2 2 3 3 3 4 4 5 5 5
19 18 17 16 15 14 13 14 16 17 17 19 20 20 18 15 15 15 14 13 11 9 9 14 11 9 8 9 11 5 5 4 4 3 3 2 3 3 3 4 4 5 5 6
19 18 19 17 15 14 12 13 15 16 17 18 17 15 15 16 16 14 13 9 10 17 12 8 8 12 13 13 6 6 6 5 4 4 3 3 3 3 3 4 4 5 5 5
14 13 13 13 13 10 10 12 15 17 19 20 20 20 19 17 15 15 13 10 8 18 14 9 14 19 20 11 7 7 7 6 5 5 4 3 3 3 3 4 4 4 5 5
9 8 7 5 8 11 14 15 14 13 14 14 15 16 16 14 11 11 5 16 20 19 12 15 22 22 20 8 8 7 7 6 5 5 4 4 3 3 3 3 3 4 4 6
4 4 6 9 12 11 11 11 12 11 12 10 11 13 12 11 11 12 10 13 22 21 12 16 23 23 14 8 9 8 7 7 6 6 5 5 4 4 3 3 3 4 4 5
4 5 6 8 7 6 8 10 11 11 12 12 12 12 11 8 8 10 10 12 16 19 13 10 12 16 10 9 9 9 8 7 7 6 6 5 5 4 4 3 4 4 4 5
3 3 4 5 6 6 8 10 11 13 14 14 13 12 13 12 11 11 12 12 12 12 11 10 10 10 10 9 9 8 7 7 6 6 6 5 5 5 4 5 4 3 4 5
Wind_Direction
258 258 237 241 226 194 196 205 215 246 253 272 245 214 197 177 167 170 183 190 192 203 235 265 285 296 300 305 316 327 330 330 327 324 324 326 329 329 331 336 340 337 339 341
292 225 256 262 240 213 219 221 237 265 274 272 287 152 160 172 177 186 193 194 193 203 222 246 268 286 300 308 316 325 327 324 323 327 329 330 330 333 335 336 336 337 339 340
284 302 320 280 237 186 206 211 199 227 251 181 204 197 189 186 187 192 191 188 191 201 214 230 249 269 287 300 312 324 323 321 323 325 329 330 333 335 334 330 331 334 334 338
304 353 279 250 136 175 213 242 215 240 256 209 219 201 192 182 184 187 184 183 187 192 204 218 235 261 281 302 317 320 320 318 319 322 323 324 329 330 326 321 326 326 326 333
101 309 284 293 226 180 206 277 222 226 250 157 108 66 262 204 187 184 180 175 178 185 191 201 227 256 287 307 316 318 316 314 313 314 318 322 326 324 317 318 318 321 325 329
138 214 258 257 165 164 105 283 244 202 199 156 143 193 245 183 172 166 163 161 168 175 182 200 221 238 271 297 307 308 305 304 304 308 315 313 314 314 312 315 319 326 325 326
175 226 262 251 150 142 189 252 220 186 179 170 191 207 186 152 156 158 159 162 165 172 186 200 207 218 256 281 285 290 297 300 304 309 309 304 312 309 314 320 323 317 314 315
161 200 254 193 148 189 218 215 182 190 184 189 195 142 144 155 158 160 162 165 169 176 193 199 199 208 249 267 275 291 298 302 305 307 308 320 315 309 311 313 314 309 305 312
192 216 235 178 202 219 198 202 205 199 194 176 168 172 165 166 165 167 170 174 174 180 189 201 203 207 240 259 285 300 305 305 305 308 305 308 306 304 309 308 308 309 310 318
242 260 247 225 239 245 216 217 212 194 177 171 176 174 170 169 172 173 176 179 176 178 190 206 209 217 231 260 283 294 301 304 305 306 309 313 313 312 311 310 309 311 323 322
248 268 291 262 231 235 227 217 206 188 182 182 173 171 174 175 178 180 181 180 180 187 197 204 202 220 235 248 267 286 296 299 306 311 309 312 317 312 315 311 324 338 332 321
231 225 210 249 234 201 201 208 199 183 183 184 180 177 173 178 178 178 179 178 184 192 199 198 198 218 231 239 248 272 295 306 308 307 315 320 318 321 329 337 340 345 345 344
233 234 219 250 250 192 205 208 191 188 184 183 182 176 174 173 176 176 179 182 190 194 195 190 196 216 225 227 241 256 273 292 298 310 317 322 326 329 329 334 341 347 350 348
238 242 268 248 233 212 204 192 178 185 186 179 172 171 173 165 169 179 186 188 186 185 187 188 199 217 216 214 235 254 267 287 299 295 303 310 316 322 327 331 333 335 341 346
227 217 230 245 224 185 169 153 168 187 182 175 170 171 172 174 181 187 182 173 172 182 191 192 206 218 202 204 227 247 264 272 278 288 303 307 310 318 326 328 329 330 332 338
219 222 233 240 235 203 180 185 194 198 190 183 180 183 183 181 177 171 169 171 176 193 198 199 211 209 190 199 221 238 254 285 304 312 317 315 313 320 329 330 330 333 335 331
209 230 221 231 230 212 204 203 205 199 190 189 188 179 169 163 164 173 180 185 189 193 194 199 206 194 189 194 204 220 237 274 302 317 304 300 301 315 321 322 323 327 327 331
222 235 227 220 222 213 211 207 205 197 192 189 173 167 172 178 184 185 181 175 178 195 206 203 193 184 189 193 199 208 217 233 253 269 282 290 301 315 314 314 317 321 324 334
230 238 241 232 221 204 202 202 203 197 183 171 173 180 184 187 183 173 166 170 185 205 213 198 201 194 195 204 202 195 202 221 242 257 272 300 324 313 308 310 313 316 320 334
237 239 240 236 218 203 203 191 185 185 179 174 176 179 183 184 173 168 172 187 199 197 172 179 193 191 191 203 202 181 193 208 224 241 257 272 290 299 305 309 313 314 320 331
235 235 232 230 221 207 195 181 179 182 178 176 181 185 183 178 173 170 178 198 202 175 170 187 184 186 186 195 200 181 189 200 211 221 235 256 277 292 302 309 315 320 328 333
229 228 227 221 211 203 188 179 179 176 174 180 184 178 173 174 177 182 196 198 174 180 180 184 181 188 190 193 181 179 189 197 203 208 219 233 251 273 291 304 309 316 322 320
240 235 228 215 202 184 165 177 180 177 180 182 183 182 181 179 178 183 196 195 168 182 179 185 190 193 194 188 177 184 191 197 201 204 210 219 231 247 267 287 296 305 307 309
244 234 220 180 153 164 184 188 182 181 181 181 185 183 178 174 186 197 179 173 180 184 182 189 193 195 193 178 177 185 191 196 198 199 203 212 222 233 247 265 281 290 296 306
245 203 167 168 186 201 195 171 167 169 171 179 183 183 186 182 179 181 172 172 180 182 181 191 193 195 188 173 181 186 189 195 195 195 202 208 215 223 235 248 264 283 293 298
203 199 200 203 204 188 171 173 180 180 179 181 185 185 186 178 162 161 168 172 178 182 178 180 186 192 181 179 185 186 188 200 212 203 195 201 210 216 226 237 256 267 280 289
208 198 196 205 203 188 180 184 188 187 186 183 180 179 179 177 171 168 168 172 177 181 177 178 181 182 179 181 183 184 185 188 192 195 195 200 205 211 218 229 240 255 272 284